Location: Tierz
(42.1336°N, 0.3549°W)
Time: 18:21:30
(UTC+00:00)

COSMO-SKYMED 1 - Pass Details

Date: 29 October 2020
Orbit: 621 x 623 km, 97.9° (Epoch: 03 December)

Event Time Altitude Azimuth Distance (km) Brightness Sun altitude
Rises 18:39:21 0° 5° (N) 2,913 5.9 -19.2°
Reaches altitude 10° 18:41:38 10° 359° (N) 2,001 5.2 -19.6°
Maximum altitude 18:45:44 42° 289° (WNW) 890 3.8 -20.4°
Drops below altitude 10° 18:49:49 10° 218° (SW) 1,986 5.6 -21.1°
Sets 18:52:04 0° 211° (SSW) 2,887 6.4 -21.6°
